Regional Weather Roundup
Issued by NWS

Home | Current Version | Previous Version | Text Only | Print | Product List | Glossary On
Versions: 1 2 3 4 5 6 7 8 9 10 11 12 13 14 15 16 17 18 19 20 21 22 23 24 25 26 27 28 29 30 31 32 33 34 35 36 37 38 39 40 41 42 43 44 45 46 47 48 49 50
000
ASUS43 KOAX 240610
RWRNE

WEATHER ROUNDUP FOR NEBRASKA
NATIONAL WEATHER SERVICE OMAHA NE
100 AM CDT THU APR 24 2014

NOTES: SATELLITE DATA IS BEING USED TO AUGMENT CLOUD COVER ABOVE
       12000 FEET.
       "FAIR" INDICATES FEW OR NO CLOUDS BELOW 12,000 FEET WITH NO
       SIGNIFICANT WEATHER AND/OR OBSTRUCTIONS TO VISIBILITY.

  * THESE STATIONS DO NOT REPORT WEATHER SUCH AS RAIN...SNOW OR FOG.

NEZ001>004-019>022-054>056-240700-
NEBRASKA PANHANDLE

CITY           SKY/WX    TMP DP  RH WIND       PRES   REMARKS
SCOTTSBLUFF    CLOUDY    49  31  49 N10       29.89R
6HR MIN TEMP:  49; 6HR MAX TEMP:  61;

ALLIANCE       CLOUDY    47  38  71 NE7       29.85R
6HR MIN TEMP:  46; 6HR MAX TEMP:  60;

CHADRON        CLOUDY    45  40  82 SE3       29.87R
6HR MIN TEMP:  45; 6HR MAX TEMP:  63;

KIMBALL        CLOUDY    46  26  45 NW14      29.89R
SIDNEY         CLOUDY    51  25  36 N21G31    29.85R
6HR MIN TEMP:  51; 6HR MAX TEMP:  57; 6HR PCP: TRACE;

$$

NEZ057>060-069>072-079>082-240700-
SOUTHWEST NEBRASKA

CITY           SKY/WX    TMP DP  RH WIND       PRES   REMARKS
NORTH PLATTE   CLOUDY    57  34  41 NW21G36   29.79R
6HR MIN TEMP:  56; 6HR MAX TEMP:  71;

IMPERIAL       CLOUDY    53  30  41 N17       29.84R
6HR MIN TEMP:  52; 6HR MAX TEMP:  71;

LEXINGTON      DRIZZLE   58  43  57 N20G31    29.71R
MCCOOK         CLOUDY    59  32  36 NW26G33   29.77R
6HR MIN TEMP:  59; 6HR MAX TEMP:  75; 6HR PCP: TRACE;

OGALLALA       CLOUDY    53  31  43 NE7       29.79S
$$

NEZ005>010-023>029-035>040-094-240700-
NORTH CENTRAL NEBRASKA

CITY           SKY/WX    TMP DP  RH WIND       PRES   REMARKS
VALENTINE      CLOUDY    51  37  58 NW14G22   29.78R
6HR MIN TEMP:  51; 6HR MAX TEMP:  67;

AINSWORTH      CLOUDY    54  38  56 NW18G24   29.75S
BROKEN BOW     LGT RAIN  54  41  61 N24G33    29.71R
6HR MIN TEMP:  54; 6HR MAX TEMP:  75; 6HR PCP: TRACE;

O`NEILL        CLOUDY    55  39  53 NW16G24   29.70R
ORD            LGT RAIN  53  47  79 NW16      29.68R
6HR MIN TEMP:  53; 6HR MAX TEMP:  80; 6HR PCP:  0.15;

THEDFORD       CLOUDY    55  37  52 N15G21    29.78R
$$

NEZ041-046>049-061>064-073>077-083>087-240700-
SOUTH CENTRAL NEBRASKA

CITY           SKY/WX    TMP DP  RH WIND       PRES   REMARKS
GRAND ISLAND   RAIN      56  54  93 SE5       29.65R FOG
6HR MIN TEMP:  56; 6HR MAX TEMP:  62; 6HR PCP:  0.96;

AURORA         CLOUDY    56  56 100 E8        29.64R
HASTINGS       RAIN      57  54  89 CALM      29.65R FOG
6HR MIN TEMP:  56; 6HR MAX TEMP:  69; 6HR PCP:  1.12;

HEBRON         TSTM      56  51  83 N6        29.64R
HOLDREGE       LGT RAIN  55  50  81 N7        29.70R
KEARNEY *      CLOUDY    54  48  82 N18       29.66S
YORK           RAIN      54  54 100 NE8       29.63R
$$

NEZ011>018-030>034-042>045-240700-
NORTHEAST NEBRASKA

CITY           SKY/WX    TMP DP  RH WIND       PRES   REMARKS
NORFOLK        RAIN      56  53  90 SE9       29.65R FOG
6HR MIN TEMP:  54; 6HR MAX TEMP:  60; 6HR PCP:  0.24;

ALBION         RAIN      56  54  94 E7        29.62F
BLAIR          LGT RAIN  49  45  85 N14       29.69R
COLUMBUS *     MOCLDY    54  48  82 E16       29.61F
FREMONT        LGT RAIN  51  46  83 NE10      29.66F
TEKAMAH        LGT RAIN  52  46  80 NE13      29.72R
6HR MIN TEMP:  51; 6HR MAX TEMP:  58; 6HR PCP:  0.31;

$$

NEZ050>053-065>068-078-088>093-240700-
SOUTHEAST NEBRASKA

CITY           SKY/WX    TMP DP  RH WIND       PRES   REMARKS
LINCOLN        CLOUDY    54  46  74 NE14      29.65F
6HR MIN TEMP:  54; 6HR MAX TEMP:  65; 6HR PCP: TRACE;

OMAHA EPPLEY   CLOUDY    51  45  79 NW15      29.69R
6HR MIN TEMP:  51; 6HR MAX TEMP:  57; 6HR PCP:  0.02;

BEATRICE       FAIR      55  47  74 NE22G29   29.59F
FALLS CITY     FAIR      63  45  51 SE14      29.55F
6HR MIN TEMP:  63; 6HR MAX TEMP:  71;

NEBRASKA CITY  FAIR      63  42  45 SE7G21    29.61R
PLATTSMOUTH    CLOUDY    55  45  69 NW10G29   29.65R
$$

NEZ044-045-051>053-067-240700-
OMAHA AREA

CITY           SKY/WX    TMP DP  RH WIND       PRES   REMARKS
OMAHA EPPLEY   CLOUDY    51  45  79 NW15      29.69R
6HR MIN TEMP:  51; 6HR MAX TEMP:  57; 6HR PCP:  0.02;

BLAIR          LGT RAIN  49  45  85 N14       29.69R
FREMONT        LGT RAIN  51  46  83 NE10      29.66F
MILLARD        LGT RAIN  50  46  84 N9        29.67R
OFFUTT AFB     CLOUDY    52  50  93 N13       29.66R
PLATTSMOUTH    CLOUDY    55  45  69 NW10G29   29.65R
WAHOO          CLOUDY    51  46  81 NE15      29.66F
$$



USA.gov is the U.S. government's official web portal to all federal, state and local government web resources and services.